Location: Torch Lake Township
(45.0753°N, 85.3586°W)
Time: 13:55:55
(UTC-04:00)

Amateur Radio Satellites - All Passes

Search period start: 29 July 2015 13:25
Search period end: 30 July 2015 13:25
Location: Torch Lake Township, 45.0753°N, 85.3586°W

Satellite Date Start Highest point End Downlink Frequencies (MHz)
Time Altitude Azimuth
DX 1 29 Jul 13:32:01 13:35:41 26° 293° (WNW) 13:39:16 434.975-435.025
ESTCUBE 1 29 Jul 13:32:32 13:36:59 59° 287° (WNW) 13:41:23 437.505/2401.250
VELOX 1 29 Jul 13:33:50 13:37:59 41° 290° (WNW) 13:42:06 145.980
BUGSAT 1 29 Jul 13:36:58 13:39:10 14° 271° (W) 13:41:12 437.445
HUMSAT D 29 Jul 13:40:27 13:43:06 16° 297° (WNW) 13:45:37 437.325/437.525
Oscar 19 29 Jul 13:44:53 13:49:46 48° 70° (ENE) 13:54:42 437.125/150
JAS-2 29 Jul 13:49:40 13:50:08 10° 46° (NE) 13:50:57 435.910
PCSat 29 Jul 13:57:32 13:59:18 11° 335° (NNW) 14:00:55 145.827
SPROUT 29 Jul 14:06:14 14:10:33 86° 103° (ESE) 14:14:51 437.525
YUBILEINY 29 Jul 14:09:43 14:17:50 42° 273° (W) 14:25:49 435.215
50 SAT 29 Jul 14:17:46 14:19:09 11° 298° (WNW) 14:20:22 437.505
Gurwin Techsat 1B 29 Jul 14:19:02 14:23:40 32° 66° (ENE) 14:28:23 435.225
ITUPSAT 1 29 Jul 14:19:28 14:21:38 13° 87° (E) 14:24:00 437.325
AO-7 29 Jul 14:29:00 14:34:22 20° 47° (NE) 14:40:01 29.400- 29.500
TISAT 1 29 Jul 14:30:40 14:34:54 84° 285° (WNW) 14:39:07 437.305
SO-50 29 Jul 14:30:46 14:31:25 10° 342° (NNW) 14:31:57 436.795
AISAT 29 Jul 14:32:03 14:33:58 12° 300° (WNW) 14:35:41 437.250
AIST 1 29 Jul 14:41:11 14:44:39 22° 290° (WNW) 14:48:00
Cosmos 2491 29 Jul 14:43:48 14:52:24 55° 286° (WNW) 15:00:56 435.465 / 435.565
Cosmos 2504 29 Jul 14:50:16 14:58:26 59° 76° (ENE) 15:06:55 435.465 / 435.565
CUBEBUG 1 29 Jul 14:56:29 14:58:02 12° 300° (WNW) 14:59:22 437.445
ITAMSAT 1 29 Jul 14:58:42 15:03:51 64° 72° (ENE) 15:09:02 435.822/435.867
BEESAT 29 Jul 15:15:53 15:20:31 47° 99° (E) 15:25:07 436.000
Oscar 19 29 Jul 15:25:19 15:29:25 23° 268° (W) 15:33:24 437.125/150
JAS-2 29 Jul 15:27:45 15:33:30 48° 67° (ENE) 15:40:03 435.910
HORYU 2 29 Jul 15:28:14 15:31:05 17° 63° (ENE) 15:34:05 437.375
SWISSCUBE 29 Jul 15:35:52 15:40:41 81° 102° (ESE) 15:45:28 437.505
SPROUT 29 Jul 15:44:40 15:46:02 11° 300° (WNW) 15:47:13 437.525
ITUPSAT 1 29 Jul 15:55:21 16:00:09 75° 287° (WNW) 16:04:55 437.325
Gurwin Techsat 1B 29 Jul 15:58:40 16:03:36 37° 264° (W) 16:08:30 435.225
DANDE 29 Jul 16:01:18 16:03:54 20° 74° (ENE) 16:07:05 436.750
AO-7 29 Jul 16:17:37 16:25:55 72° 67° (ENE) 16:34:16 29.400- 29.500
STARS 29 Jul 16:38:07 16:42:10 35° 97° (E) 16:46:14 437.465
ITAMSAT 1 29 Jul 16:40:16 16:43:52 18° 271° (W) 16:47:18 435.822/435.867
CUSAT 1 29 Jul 16:42:24 16:46:08 80° 260° (W) 16:51:07 437.405
Cosmos 2504 29 Jul 16:43:03 16:50:19 34° 275° (W) 16:57:37 435.465 / 435.565
Cosmos 2491 29 Jul 16:48:31 16:51:55 12° 312° (NW) 16:54:46 435.465 / 435.565
GONETS M04 29 Jul 16:54:08 17:00:30 23° 59° (ENE) 17:07:12
BEESAT 29 Jul 16:54:22 16:58:05 22° 296° (WNW) 17:01:40 436.000
KKS-1 29 Jul 16:57:06 17:01:35 90° 292° (WNW) 17:06:03 437.445
HORYU 2 29 Jul 17:02:58 17:07:20 55° 260° (W) 17:11:45 437.375
JAS-2 29 Jul 17:13:37 17:18:56 31° 270° (W) 17:24:45 435.910
SWISSCUBE 29 Jul 17:15:24 17:17:57 14° 300° (WNW) 17:20:20 437.505
MOZHAYETS 4 29 Jul 17:26:24 17:30:11 25° 93° (E) 17:34:01
PCSat 29 Jul 17:29:34 17:31:42 12° 27° (NNE) 17:34:00 145.827
ITUPSAT 1 29 Jul 17:36:13 17:37:17 11° 303° (WNW) 17:38:05 437.325
DANDE 29 Jul 17:44:01 17:46:58 25° 262° (W) 17:50:31 436.750
CUTE-I 29 Jul 17:45:04 17:48:44 20° 61° (ENE) 17:52:34 437.470
SO-50 29 Jul 17:53:46 17:57:00 17° 31° (NNE) 18:00:19 436.795
AO-7 29 Jul 18:12:30 18:19:30 28° 268° (W) 18:26:17 29.400- 29.500
STARS 29 Jul 18:14:49 18:18:29 25° 294° (WNW) 18:22:04 437.465
Cubesat XI-IV 29 Jul 18:26:32 18:31:32 42° 68° (ENE) 18:36:36 437.490
KKS-1 29 Jul 18:36:04 18:37:36 11° 301° (WNW) 18:38:55 437.445
Cosmos 2499 29 Jul 18:41:30 18:48:23 26° 62° (ENE) 18:55:39 435.465 / 435.565
GONETS M04 29 Jul 18:49:57 18:58:43 87° 262° (W) 19:07:28
MOZHAYETS 4 29 Jul 19:03:14 19:07:33 37° 290° (WNW) 19:11:46
PCSat 29 Jul 19:11:24 19:16:37 45° 50° (NE) 19:21:50 145.827
CUBESAT XI-V 29 Jul 19:12:10 19:16:03 27° 93° (E) 19:19:59 437.345
HO-68 29 Jul 19:13:58 19:17:37 15° 49° (NE) 19:21:34 435.675
CUTE-I 29 Jul 19:23:00 19:28:21 67° 258° (WSW) 19:33:43 437.470
SO-50 29 Jul 19:33:28 19:38:28 72° 52° (NE) 19:43:20 436.795
PRISM 29 Jul 19:57:38 20:00:20 17° 91° (E) 20:03:08 437.425
Cubesat XI-IV 29 Jul 20:07:09 20:11:48 29° 266° (W) 20:16:23 437.490
STRAND 1 29 Jul 20:09:24 20:13:54 31° 95° (E) 20:18:27 437.568
VERMONT LUNAR 29 Jul 20:21:14 20:22:54 14° 155° (SSE) 20:24:37 437.305
BRITE-PL 29 Jul 20:27:00 20:31:25 68° 75° (ENE) 20:35:38 437.365/2234.400
Cosmos 2499 29 Jul 20:33:53 20:42:34 79° 264° (W) 20:51:26 435.465 / 435.565
RS-15 29 Jul 20:45:15 20:46:59 11° 95° (E) 20:49:51 29.354- 29.394
GONETS M04 29 Jul 20:48:42 20:54:26 19° 282° (WNW) 20:59:44
CUBESAT XI-V 29 Jul 20:49:23 20:53:34 34° 291° (WNW) 20:57:41 437.345
COMPASS 1 29 Jul 20:51:12 20:54:32 24° 67° (ENE) 20:57:58 437.405
GOMX 1 29 Jul 20:52:32 20:56:47 74° 75° (ENE) 21:00:57 467.674
DOVE 4 29 Jul 20:55:06 20:59:06 47° 72° (ENE) 21:03:06 437.250
PCSat 29 Jul 20:55:09 20:59:53 30° 249° (WSW) 21:04:31 145.827
Oscar 11 29 Jul 20:55:12 20:56:39 12° 60° (ENE) 20:58:16 145.826/435.025
HO-68 29 Jul 20:57:08 21:04:10 66° 69° (ENE) 21:11:16 435.675
CUTE 1.7 + AOD 2 29 Jul 20:58:56 21:02:58 43° 71° (ENE) 21:07:04 437.475
SEEDS 29 Jul 21:00:52 21:04:45 37° 70° (ENE) 21:08:42 437.485
CANX-2 29 Jul 21:06:41 21:10:52 58° 74° (ENE) 21:15:07 2200.000
SO-50 29 Jul 21:15:17 21:18:30 17° 249° (WSW) 21:21:29 436.795
CINEMA 3 29 Jul 21:25:11 21:29:07 43° 71° (ENE) 21:33:08 145.822/145.860
PRISM 29 Jul 21:32:05 21:36:02 43° 289° (WNW) 21:39:55 437.425
AAUSAT CUBESAT 2 29 Jul 21:34:14 21:38:21 56° 74° (ENE) 21:42:30 437.432
DELFI C3 29 Jul 21:41:12 21:44:17 21° 66° (ENE) 21:47:26 145.870
ZACube-1 29 Jul 21:48:16 21:51:35 23° 66° (ENE) 21:55:01 437.345
STRAND 1 29 Jul 21:48:30 21:53:10 35° 293° (WNW) 21:57:44 437.568
VERMONT LUNAR 29 Jul 21:56:16 21:59:08 31° 171° (S) 22:02:00 437.305
UWE-3 29 Jul 22:05:03 22:09:00 44° 72° (ENE) 22:13:06 435.000/436.395/437.385
BRITE-PL 29 Jul 22:08:47 22:10:29 12° 272° (W) 22:11:55 437.365/2234.400
FUNcube-1 29 Jul 22:10:36 22:14:27 38° 70° (ENE) 22:18:26 145.935
CUBEBUG 2 29 Jul 22:14:31 22:18:39 71° 75° (ENE) 22:22:55 437.445
AISAT 29 Jul 22:20:09 22:21:26 11° 60° (ENE) 22:22:55 437.250
COMPASS 1 29 Jul 22:26:12 22:30:03 34° 264° (W) 22:33:55 437.405
Oscar 11 29 Jul 22:27:52 22:32:13 83° 257° (WSW) 22:36:36 145.826/435.025
Cosmos 2499 29 Jul 22:29:08 22:34:35 18° 282° (WNW) 22:39:37 435.465 / 435.565
UKube-1 29 Jul 22:30:13 22:33:22 20° 65° (ENE) 22:36:36 .
DOVE 4 29 Jul 22:34:36 22:37:13 16° 270° (W) 22:39:40 437.250
GOMX 1 29 Jul 22:35:05 22:35:33 10° 273° (W) 22:35:45 467.674
M-CUBED/EXP-1 PRIME 29 Jul 22:35:34 22:39:25 24° 97° (E) 22:43:18 437.505
CUTE 1.7 + AOD 2 29 Jul 22:36:02 22:39:07 19° 269° (W) 22:42:07 437.475
SEEDS 29 Jul 22:37:20 22:40:41 22° 268° (W) 22:43:57 437.485
CUBEBUG 1 29 Jul 22:43:25 22:44:19 11° 60° (ENE) 22:45:26 437.445
CANX-2 29 Jul 22:44:51 22:47:14 14° 272° (W) 22:49:27 2200.000
RS-15 29 Jul 22:46:32 22:57:00 57° 115° (ESE) 23:07:56 29.354- 29.394
HO-68 29 Jul 22:46:38 22:52:31 26° 269° (W) 22:58:14 435.675
DX 1 29 Jul 22:53:03 22:57:01 36° 69° (ENE) 23:01:02 434.975-435.025
Cosmos 2491 29 Jul 22:55:42 23:01:37 20° 57° (ENE) 23:07:51 435.465 / 435.565
HUMSAT D 29 Jul 22:57:01 23:01:02 52° 73° (ENE) 23:05:07 437.325/437.525
VELOX 1 29 Jul 22:57:29 23:01:02 25° 66° (ENE) 23:04:40 145.980
ESTCUBE 1 29 Jul 22:58:40 23:01:49 19° 64° (ENE) 23:05:04 437.505/2401.250
PHONESAT 2.4 29 Jul 23:02:32 23:05:29 25° 163° (SSE) 23:08:27 2401.200-2431.200
CINEMA 3 29 Jul 23:03:50 23:06:38 17° 270° (W) 23:09:20 145.822/145.860
AUBIESAT-1 29 Jul 23:07:15 23:11:46 41° 102° (ESE) 23:16:12 437.475
AIST 1 29 Jul 23:09:31 23:10:59 12° 63° (ENE) 23:12:40
ISS 29 Jul 23:11:23 23:14:26 38° 142° (SE) 23:17:30 145.825
AAUSAT CUBESAT 2 29 Jul 23:12:03 23:14:22 14° 272° (W) 23:16:31 437.432
DELFI C3 29 Jul 23:15:24 23:19:10 35° 264° (W) 23:22:55 145.870
TIGRISAT 29 Jul 23:20:11 23:23:27 19° 91° (E) 23:26:53 435.000
ANTELSAT 29 Jul 23:20:40 23:24:04 20° 91° (E) 23:27:36 437.575/2403.000
ZACube-1 29 Jul 23:23:58 23:27:48 34° 264° (W) 23:31:41 437.345
50 SAT 29 Jul 23:26:35 23:30:20 51° 73° (ENE) 23:34:10 437.505
VERMONT LUNAR 29 Jul 23:32:38 23:35:31 32° 188° (S) 23:38:24 437.305
UWE-3 29 Jul 23:42:56 23:45:50 18° 270° (W) 23:48:40 435.000/436.395/437.385
FUNcube-1 29 Jul 23:47:47 23:50:59 20° 269° (W) 23:54:07 145.935
TISAT 1 29 Jul 23:52:45 23:53:26 10° 60° (ENE) 23:54:19 437.305
AISAT 29 Jul 23:52:58 23:57:23 89° 256° (WSW) 00:01:49 437.250
CUBEBUG 2 29 Jul 23:54:45 23:55:59 11° 274° (W) 23:57:00 437.445
DUCHIFAT 1 29 Jul 23:56:25 23:58:59 16° 90° (E) 00:01:43 145.980
QB50P1 29 Jul 23:57:25 00:00:11 17° 90° (E) 00:03:05 145.935-145.965
NANOSAT C BR1 29 Jul 23:59:43 00:02:33 18° 91° (E) 00:05:32 145.865
UKube-1 30 Jul 00:05:06 00:09:14 43° 262° (W) 00:13:22 .
M-CUBED/EXP-1 PRIME 30 Jul 00:09:45 00:14:21 45° 295° (WNW) 00:18:53 437.505
UNISAT 6 30 Jul 00:11:22 00:16:01 63° 101° (E) 00:20:41 437.425
CUBEBUG 1 30 Jul 00:15:40 00:20:03 88° 77° (ENE) 00:24:26 437.445
DX 1 30 Jul 00:29:53 00:33:23 23° 267° (W) 00:36:48 434.975-435.025
VELOX 1 30 Jul 00:33:22 00:37:26 35° 263° (W) 00:41:30 145.980
ESTCUBE 1 30 Jul 00:33:55 00:38:21 51° 261° (W) 00:42:47 437.505/2401.250
HUMSAT D 30 Jul 00:34:42 00:37:09 15° 271° (W) 00:39:28 437.325/437.525
POLYITAN 1 30 Jul 00:38:09 00:42:17 46° 99° (E) 00:46:25 437.675
PHONESAT 2.4 30 Jul 00:39:46 00:43:04 39° 180° (S) 00:46:22 2401.200-2431.200
AUBIESAT-1 30 Jul 00:42:14 00:46:15 27° 300° (WNW) 00:50:11 437.475
AIST 1 30 Jul 00:45:00 00:49:16 70° 263° (W) 00:53:29
ISS 30 Jul 00:47:46 00:50:52 41° 340° (NNW) 00:54:00 145.825
BEESAT 3 30 Jul 00:50:20 00:53:52 30° 117° (ESE) 00:57:30 437.485
Cosmos 2491 30 Jul 00:51:19 01:00:05 85° 81° (E) 01:08:50 435.465 / 435.565
TIGRISAT 30 Jul 00:55:59 01:00:29 50° 288° (WNW) 01:05:02 435.000
POPSAT HIP 1 30 Jul 00:56:16 01:00:32 72° 102° (ESE) 01:04:47 437.405
ANTELSAT 30 Jul 00:56:37 01:01:07 48° 288° (WNW) 01:05:38 437.575/2403.000
RS-15 30 Jul 00:59:01 01:09:43 52° 321° (NW) 01:20:48 29.354- 29.394
SPROUT 30 Jul 01:02:02 01:06:18 84° 76° (ENE) 01:10:36 437.525
QB50P2 30 Jul 01:03:13 01:07:30 88° 95° (E) 01:11:47 145.880/145.840
50 SAT 30 Jul 01:03:20 01:05:18 13° 271° (W) 01:07:07 437.505
SWISSCUBE 30 Jul 01:08:57 01:11:42 16° 61° (ENE) 01:14:38 437.505
VERMONT LUNAR 30 Jul 01:09:51 01:11:46 15° 203° (SSW) 01:13:38 437.305
BUGSAT 1 30 Jul 01:14:36 01:18:39 71° 101° (E) 01:22:44 437.445
YUBILEINY 30 Jul 01:15:58 01:24:12 51° 90° (E) 01:32:35 435.215
AIST 2 30 Jul 01:23:36 01:25:25 13° 110° (ESE) 01:27:27 435.215
TISAT 1 30 Jul 01:24:24 01:28:35 88° 251° (WSW) 01:32:48 437.305
ITUPSAT 1 30 Jul 01:27:45 01:31:15 21° 63° (ENE) 01:34:53 437.325
DUCHIFAT 1 30 Jul 01:31:01 01:35:07 50° 288° (WNW) 01:39:13 145.980
QB50P1 30 Jul 01:32:15 01:36:20 46° 288° (WNW) 01:40:24 145.935-145.965
NANOSAT C BR1 30 Jul 01:34:35 01:38:39 44° 289° (WNW) 01:42:41 145.865
BEESAT 2 30 Jul 01:43:45 01:47:52 82° 124° (SE) 01:52:01 435.950
UNISAT 6 30 Jul 01:49:18 01:52:21 17° 297° (WNW) 01:55:17 437.425
Oscar 19 30 Jul 01:55:48 01:58:25 14° 87° (E) 02:01:17 437.125/150
POLYITAN 1 30 Jul 02:14:52 02:17:53 19° 295° (WNW) 02:20:48 437.675
PHONESAT 2.4 30 Jul 02:17:40 02:20:38 26° 197° (SSW) 02:23:35 2401.200-2431.200
KKS-1 30 Jul 02:23:28 02:25:21 13° 60° (ENE) 02:27:25 437.445
BEESAT 30 Jul 02:24:06 02:28:51 68° 73° (ENE) 02:33:39 436.000
ISS 30 Jul 02:25:06 02:27:51 24° 0° (N) 02:30:38 145.825
BEESAT 3 30 Jul 02:28:04 02:31:47 32° 315° (NW) 02:35:30 437.485
POPSAT HIP 1 30 Jul 02:33:52 02:35:53 13° 298° (WNW) 02:37:44 437.405
QB50P2 30 Jul 02:41:41 02:42:47 11° 300° (WNW) 02:43:42 145.880/145.840
SWISSCUBE 30 Jul 02:44:15 02:49:03 72° 257° (WSW) 02:53:53 437.505
Cosmos 2491 30 Jul 02:49:44 02:55:59 22° 281° (W) 03:01:52 435.465 / 435.565
BUGSAT 1 30 Jul 02:51:59 02:53:38 12° 298° (WNW) 02:55:07 437.445
AIST 2 30 Jul 02:59:13 03:03:29 75° 306° (NW) 03:07:46 435.215
ITUPSAT 1 30 Jul 03:04:07 03:08:49 51° 260° (W) 03:13:32 437.325
ITAMSAT 1 30 Jul 03:10:30 03:14:03 19° 90° (E) 03:17:45 435.822/435.867
YUBILEINY 30 Jul 03:13:16 03:21:20 39° 292° (WNW) 03:29:21 435.215
O/OREOS (USA 219) 30 Jul 03:15:24 03:19:51 78° 112° (ESE) 03:24:23 437.305
RS-15 30 Jul 03:16:10 03:25:34 29° 353° (N) 03:35:16 29.354- 29.394
BEESAT 2 30 Jul 03:23:44 03:26:28 17° 324° (NW) 03:29:08 435.950
Cosmos 2504 30 Jul 03:23:57 03:30:19 38° 87° (E) 03:37:11 435.465 / 435.565
Oscar 19 30 Jul 03:33:16 03:38:28 78° 286° (WNW) 03:43:39 437.125/150
STARS 30 Jul 03:36:50 03:40:54 40° 70° (ENE) 03:45:00 437.465
KKS-1 30 Jul 03:57:01 04:01:26 78° 257° (WSW) 04:05:53 437.445
ISS 30 Jul 04:01:42 04:04:50 42° 20° (NNE) 04:07:58 145.825
BEESAT 30 Jul 04:04:31 04:07:16 15° 272° (W) 04:09:48 436.000
Gurwin Techsat 1B 30 Jul 04:12:11 04:17:32 76° 102° (ESE) 04:22:52 435.225
AO-7 30 Jul 04:18:24 04:23:52 20° 87° (E) 04:29:42 29.400- 29.500
JAS-2 30 Jul 04:18:44 04:26:01 42° 95° (E) 04:33:24 435.910
MOZHAYETS 4 30 Jul 04:30:10 04:34:11 30° 68° (ENE) 04:38:16
AIST 2 30 Jul 04:40:24 04:42:48 14° 327° (NNW) 04:45:08 435.215
ITAMSAT 1 30 Jul 04:48:55 04:54:02 59° 289° (WNW) 04:59:06 435.822/435.867
HORYU 2 30 Jul 04:52:32 04:56:09 24° 93° (E) 04:59:52 437.375
O/OREOS (USA 219) 30 Jul 04:57:17 04:59:56 15° 313° (NW) 05:02:28 437.305
STARS 30 Jul 05:14:09 05:17:31 21° 268° (W) 05:20:49 437.465
Oscar 19 30 Jul 05:14:57 05:17:04 12° 303° (WNW) 05:18:56 437.125/150
Cosmos 2504 30 Jul 05:15:42 05:22:28 43° 289° (WNW) 05:29:38 435.465 / 435.565
DANDE 30 Jul 05:16:46 05:19:07 18° 97° (E) 05:21:16 436.750
RS-15 30 Jul 05:31:52 05:42:16 37° 26° (NNE) 05:53:12 29.354- 29.394
ISS 30 Jul 05:38:12 05:41:15 36° 218° (SW) 05:44:18 145.825
Gurwin Techsat 1B 30 Jul 05:53:30 05:56:58 17° 300° (WNW) 06:00:16 435.225
CUSAT 1 30 Jul 05:53:35 05:56:33 67° 281° (W) 05:59:11 437.405
GONETS M04 30 Jul 05:59:35 06:05:41 23° 80° (E) 06:12:06
JAS-2 30 Jul 06:03:45 06:11:07 48° 293° (WNW) 06:18:30 435.910
MOZHAYETS 4 30 Jul 06:07:13 06:11:22 31° 265° (W) 06:15:30
AO-7 30 Jul 06:09:34 06:17:59 88° 108° (ESE) 06:26:19 29.400- 29.500
CUBESAT XI-V 30 Jul 06:17:20 06:21:31 34° 69° (ENE) 06:25:44 437.345
HORYU 2 30 Jul 06:28:45 06:32:56 37° 291° (WNW) 06:37:03 437.375
Cubesat XI-IV 30 Jul 06:43:22 06:45:48 14° 86° (E) 06:48:32 437.490
PRISM 30 Jul 06:49:43 06:52:33 18° 64° (ENE) 06:55:30 437.425
DANDE 30 Jul 07:00:06 07:02:11 16° 287° (WNW) 07:04:00 436.750
Cosmos 2499 30 Jul 07:24:24 07:28:08 15° 76° (ENE) 07:32:27 435.465 / 435.565
STRAND 1 30 Jul 07:27:01 07:32:02 56° 71° (ENE) 07:37:04 437.568
CUTE-I 30 Jul 07:38:11 07:43:13 41° 97° (E) 07:48:14 437.470
RS-15 30 Jul 07:44:48 07:56:36 86° 54° (NE) 08:08:51 29.354- 29.394
JAS-2 30 Jul 07:51:42 07:54:34 12° 312° (NW) 07:57:03 435.910
GONETS M04 30 Jul 07:52:53 08:01:38 81° 280° (W) 08:10:22
CUBESAT XI-V 30 Jul 07:54:55 07:58:59 28° 266° (W) 08:03:00 437.345
AO-7 30 Jul 08:03:24 08:09:54 25° 309° (NW) 08:16:10 29.400- 29.500
Cubesat XI-IV 30 Jul 08:21:20 08:26:42 84° 288° (WNW) 08:32:02 437.490
PRISM 30 Jul 08:23:39 08:27:42 46° 261° (W) 08:31:44 437.425
BEESAT 2 30 Jul 08:24:02 08:26:31 16° 35° (NE) 08:29:04 435.950
BRITE-PL 30 Jul 08:29:53 08:32:42 17° 91° (E) 08:35:46 437.365/2234.400
GOMX 1 30 Jul 08:52:18 08:55:21 18° 91° (E) 08:58:38 467.674
DOVE 4 30 Jul 08:53:16 08:54:45 12° 87° (E) 08:56:32 437.250
BEESAT 3 30 Jul 09:06:34 09:10:21 36° 47° (NE) 09:14:06 437.485
STRAND 1 30 Jul 09:07:49 09:11:38 20° 269° (W) 09:15:19 437.568
Cosmos 2499 30 Jul 09:12:37 09:19:58 81° 97° (E) 09:28:00 435.465 / 435.565
CUTE-I 30 Jul 09:18:34 09:23:10 29° 295° (WNW) 09:27:38 437.470
M-CUBED/EXP-1 PRIME 30 Jul 09:25:10 09:28:52 36° 63° (ENE) 09:32:55 437.505
AIST 2 30 Jul 09:41:18 09:44:28 20° 38° (NE) 09:47:39 435.215
SO-50 30 Jul 09:51:51 09:54:21 15° 109° (ESE) 09:57:05 436.795
GONETS M04 30 Jul 09:54:08 10:00:11 19° 304° (NW) 10:05:50
PCSat 30 Jul 09:55:53 10:00:15 26° 110° (ESE) 10:04:43 145.827
AUBIESAT-1 30 Jul 09:56:24 10:00:24 67° 68° (ENE) 10:04:46 437.475
RS-15 30 Jul 09:58:19 10:08:01 30° 255° (WSW) 10:17:30 29.354- 29.394
BEESAT 2 30 Jul 10:01:04 10:05:11 88° 237° (WSW) 10:09:13 435.950
Cubesat XI-IV 30 Jul 10:03:22 10:06:05 14° 303° (WNW) 10:08:33 437.490
CUBEBUG 2 30 Jul 10:04:37 10:06:59 14° 88° (E) 10:09:36 437.445
COMPASS 1 30 Jul 10:07:18 10:11:08 32° 96° (E) 10:14:57 437.405
BRITE-PL 30 Jul 10:07:24 10:11:32 48° 287° (WNW) 10:15:55 437.365/2234.400
HO-68 30 Jul 10:10:03 10:17:07 57° 101° (E) 10:24:11 435.675
Oscar 11 30 Jul 10:14:26 10:17:02 16° 89° (E) 10:19:47 145.826/435.025
CUTE 1.7 + AOD 2 30 Jul 10:17:36 10:21:54 66° 101° (E) 10:26:10 437.475
SEEDS 30 Jul 10:18:24 10:22:36 54° 99° (E) 10:26:47 437.485
TIGRISAT 30 Jul 10:21:16 10:24:27 21° 65° (ENE) 10:27:47 435.000
ANTELSAT 30 Jul 10:21:57 10:25:14 22° 65° (ENE) 10:28:41 437.575/2403.000
CANX-2 30 Jul 10:25:37 10:29:58 89° 102° (ESE) 10:34:16 2200.000
DOVE 4 30 Jul 10:28:34 10:33:05 79° 284° (WNW) 10:37:53 437.250
GOMX 1 30 Jul 10:29:29 10:33:45 49° 288° (WNW) 10:38:16 467.674
BEESAT 3 30 Jul 10:44:47 10:48:09 25° 245° (WSW) 10:51:24 437.485
AAUSAT CUBESAT 2 30 Jul 10:50:26 10:54:42 82° 102° (ESE) 10:58:54 437.432
DUCHIFAT 1 30 Jul 10:51:05 10:53:39 16° 64° (ENE) 10:56:21 145.980
DELFI C3 30 Jul 10:52:25 10:55:48 25° 94° (E) 10:59:13 145.870
QB50P1 30 Jul 10:52:25 10:55:11 18° 64° (ENE) 10:58:04 145.935-145.965
CINEMA 3 30 Jul 10:54:02 10:58:40 88° 103° (ESE) 11:03:30 145.822/145.860
NANOSAT C BR1 30 Jul 10:54:30 10:57:19 18° 65° (ENE) 11:00:15 145.865
M-CUBED/EXP-1 PRIME 30 Jul 11:00:35 11:03:49 23° 263° (W) 11:07:11 437.505
Cosmos 2499 30 Jul 11:08:38 11:14:22 22° 301° (WNW) 11:20:10 435.465 / 435.565
ZACube-1 30 Jul 11:09:50 11:14:03 38° 97° (E) 11:18:21 437.345
UNISAT 6 30 Jul 11:12:15 11:16:33 68° 74° (ENE) 11:20:59 437.425
AIST 2 30 Jul 11:19:15 11:23:25 61° 239° (WSW) 11:27:29 435.215
YUBILEINY 30 Jul 11:23:33 11:30:49 29° 63° (ENE) 11:38:18 435.215
UWE-3 30 Jul 11:28:34 11:33:10 77° 102° (ESE) 11:37:49 435.000/436.395/437.385
SO-50 30 Jul 11:29:30 11:34:18 80° 308° (NW) 11:39:14 436.795
FUNcube-1 30 Jul 11:32:23 11:36:52 64° 101° (E) 11:41:25 145.935
POLYITAN 1 30 Jul 11:32:58 11:36:57 45° 71° (ENE) 11:41:00 437.675
AUBIESAT-1 30 Jul 11:33:53 11:35:45 12° 269° (W) 11:37:28 437.475
PCSat 30 Jul 11:38:06 11:43:23 52° 308° (NW) 11:48:43 145.827
CUBEBUG 2 30 Jul 11:39:35 11:44:09 67° 286° (WNW) 11:48:49 437.445
AISAT 30 Jul 11:42:53 11:45:22 15° 89° (E) 11:48:01 437.250
COMPASS 1 30 Jul 11:43:10 11:46:41 25° 293° (WNW) 11:50:05 437.405
O/OREOS (USA 219) 30 Jul 11:44:31 11:48:20 26° 54° (NE) 11:52:13 437.305
Oscar 11 30 Jul 11:49:18 11:53:35 53° 288° (WNW) 11:57:50 145.826/435.025
UKube-1 30 Jul 11:50:41 11:54:18 26° 95° (E) 11:57:57 .
POPSAT HIP 1 30 Jul 11:50:44 11:54:54 69° 74° (ENE) 11:59:06 437.405
CUTE 1.7 + AOD 2 30 Jul 11:55:00 11:57:20 14° 298° (WNW) 11:59:31 437.475
SEEDS 30 Jul 11:55:17 11:58:01 16° 296° (WNW) 12:00:37 437.485
TIGRISAT 30 Jul 11:56:49 12:00:56 43° 262° (W) 12:05:09 435.000
ANTELSAT 30 Jul 11:57:41 12:01:47 40° 263° (W) 12:06:00 437.575/2403.000
QB50P2 30 Jul 11:57:48 12:02:00 85° 76° (ENE) 12:06:15 145.880/145.840
HO-68 30 Jul 11:58:18 12:04:34 33° 300° (WNW) 12:10:43 435.675
Cosmos 2491 30 Jul 12:01:41 12:07:18 20° 78° (ENE) 12:13:18 435.465 / 435.565
CUBEBUG 1 30 Jul 12:04:00 12:06:11 14° 88° (E) 12:08:35 437.445
CANX-2 30 Jul 12:04:05 12:05:16 11° 300° (WNW) 12:06:14 2200.000
BUGSAT 1 30 Jul 12:06:21 12:10:22 64° 74° (ENE) 12:14:22 437.445
DOVE 4 30 Jul 12:09:41 12:10:16 10° 300° (WNW) 12:10:36 437.250
HUMSAT D 30 Jul 12:14:15 12:18:35 77° 101° (ESE) 12:22:56 437.325/437.525
DX 1 30 Jul 12:15:02 12:19:17 51° 100° (E) 12:23:31 434.975-435.025
VELOX 1 30 Jul 12:21:28 12:25:31 35° 97° (E) 12:29:35 145.980
ESTCUBE 1 30 Jul 12:24:49 12:28:41 28° 94° (E) 12:32:35 437.505/2401.250
DUCHIFAT 1 30 Jul 12:25:01 12:29:06 51° 261° (W) 12:33:12 145.980
QB50P1 30 Jul 12:26:40 12:30:44 47° 261° (W) 12:34:49 145.935-145.965
DELFI C3 30 Jul 12:27:19 12:30:52 28° 291° (WNW) 12:34:21 145.870
AAUSAT CUBESAT 2 30 Jul 12:28:19 12:29:42 11° 299° (WNW) 12:30:54 437.432
NANOSAT C BR1 30 Jul 12:28:48 12:32:51 45° 261° (W) 12:36:54 145.865
CINEMA 3 30 Jul 12:33:18 12:35:19 12° 299° (WNW) 12:37:10 145.822/145.860
50 SAT 30 Jul 12:34:13 12:38:10 60° 100° (E) 12:42:06 437.505
ZACube-1 30 Jul 12:46:34 12:50:14 24° 293° (WNW) 12:53:53 437.345
SPROUT 30 Jul 12:48:25 12:50:15 13° 88° (E) 12:52:18 437.525
UNISAT 6 30 Jul 12:51:59 12:53:57 12° 273° (W) 12:55:42 437.425
UWE-3 30 Jul 13:06:47 13:09:10 14° 298° (WNW) 13:11:23 435.000/436.395/437.385
Cosmos 2504 30 Jul 13:07:26 13:12:08 16° 55° (NE) 13:17:21 435.465 / 435.565
TISAT 1 30 Jul 13:08:35 13:10:20 13° 88° (E) 13:12:18 437.305
FUNcube-1 30 Jul 13:09:57 13:12:45 16° 297° (WNW) 13:15:24 145.935
POLYITAN 1 30 Jul 13:10:16 13:13:09 17° 270° (W) 13:15:54 437.675
SO-50 30 Jul 13:12:15 13:15:40 18° 328° (NNW) 13:19:02 436.795
Oscar 19 30 Jul 13:14:05 13:18:14 26° 65° (ENE) 13:22:30 437.125/150
AIST 1 30 Jul 13:16:05 13:20:23 61° 96° (E) 13:24:41
